Вернуться в каталог

CZ-4C DEB

АктивенPO
NORAD 39231·DEBRIS·🇨🇳 China

Запущен Jul 19, 2013 с Taiyuan Satellite Launch Center

Loading…

Ближайшие Пролёты (ближайшие 24 часа)

TLE

СвежийSource: Space-Track

Эпоха: Sep 13, 2026, 05:36 UTC

1 39231U 13037H   26256.23376416  .00000897  00000-0  34488-3 0  9999
2 39231  98.0645 260.8678 0235252 326.6229  32.0302 14.18623160673006

Отслеживайте CZ-4C DEB в реальном времени с AllMySat

Download on the App Store